MDT,Max TemperatureF,Mean TemperatureF,Min TemperatureF,Max Dew PointF,MeanDew PointF,Min DewpointF,Max Humidity, Mean Humidity, Min Humidity, Max Sea Level PressureIn, Mean Sea Level PressureIn, Min Sea Level PressureIn, Max VisibilityMiles, Mean VisibilityMiles, Min VisibilityMiles, Max Wind SpeedMPH, Mean Wind SpeedMPH, Max Gust SpeedMPH,PrecipitationIn, CloudCover, Events, WindDirDegrees
2013-7-1,78,71,62,55,53,52,68,52,39,30.34,30.29,30.26,10,10,10,14,8,21,0.00,2,Thunderstorm,110
2013-7-2,84,70,55,54,50,46,94,53,29,30.33,30.24,30.16,10,10,5,17,6,24,0.00,0,,69
2013-7-3,89,70,51,50,47,45,77,45,22,30.19,30.07,29.95,10,10,9,10,5,17,0.00,0,,46
2013-7-4,95,77,59,52,48,43,67,37,18,30.05,29.99,29.92,10,10,6,23,6,28,0.00,1,,91
2013-7-5,89,76,64,57,53,46,77,51,27,29.99,29.94,29.88,10,10,10,16,5,33,0.00,1,Thunderstorm,274
2013-7-6,89,76,62,57,52,46,77,44,22,30.04,29.97,29.92,10,10,10,15,6,21,0.00,2,,276
2013-7-7,73,70,66,55,51,48,68,51,41,30.11,30.05,30.02,10,10,10,18,7,23,0.00,2,,10
2013-7-8,,,,,,,,,,,,,,,,,,,,,,
2013-7-9,98,84,69,46,42,37,43,23,13,30.29,30.19,30.13,10,10,10,16,6,28,0.00,0,,56
2013-7-10,91,76,60,61,54,48,77,50,31,30.31,30.21,30.03,10,10,4,20,5,25,0.00,0,,80
2013-7-11,100,78,57,59,53,43,82,46,14,30.17,30.04,29.86,10,10,10,23,8,31,0.00,0,,132
2013-7-12,91,78,66,64,55,48,83,53,29,30.13,30.04,29.97,10,10,5,17,6,23,0.03,2,Thunderstorm,174
2013-7-13,91,76,62,64,60,52,94,68,29,30.25,30.14,30.07,10,10,7,22,4,28,0.37,1,Thunderstorm,128
2013-7-14,80,70,60,64,61,55,94,74,51,30.30,30.23,30.14,10,10,10,17,6,23,0.00,3,,44
2013-7-15,80,72,62,64,60,46,94,70,47,30.27,30.21,30.14,10,9,3,22,7,30,0.00,6,,136
2013-7-16,86,70,53,55,50,46,82,52,28,30.29,30.21,30.16,10,10,10,20,10,26,0.00,0,,111
2013-7-17,89,72,55,57,54,48,94,56,27,30.29,30.22,30.10,10,10,10,16,9,17,0.00,0,,106
2013-7-18,93,76,60,61,55,52,88,59,26,30.25,30.17,30.10,10,10,10,23,7,29,0.00,2,Thunderstorm,341
2013-7-19,82,71,60,63,58,55,88,64,45,30.27,30.21,30.14,10,10,10,16,9,22,0.00,2,,65
2013-7-20,87,73,59,61,56,48,94,64,34,30.15,30.08,30.02,10,10,5,24,6,33,0.00,0,Thunderstorm,43
2013-7-21,84,68,53,63,57,52,94,66,42,30.07,30.00,29.92,10,10,10,16,6,22,0.00,1,,49
2013-7-22,93,76,60,63,55,48,88,50,24,30.06,30.00,29.95,10,10,10,13,7,18,0.00,0,,80
2013-7-23,89,74,60,59,55,45,73,51,33,30.22,30.10,30.00,10,10,10,14,7,16,0.00,0,,67
2013-7-24,82,72,62,63,56,45,83,61,26,30.28,30.19,30.05,10,10,3,22,7,30,0.32,1,Thunderstorm,30
2013-7-25,75,66,57,59,56,54,88,69,53,30.29,30.21,30.14,10,10,6,14,4,22,0.00,3,Thunderstorm,303
2013-7-26,87,72,57,55,51,45,82,55,23,30.33,30.27,30.16,10,10,10,30,5,37,0.00,1,,162
2013-7-27,75,64,53,59,53,48,88,69,50,30.23,30.15,30.09,10,10,7,14,7,17,0.03,3,,47
2013-7-28,73,66,59,61,57,55,94,81,57,30.15,30.05,29.98,10,8,3,14,4,,0.00,6,,121
2013-7-29,78,68,59,61,56,46,94,74,34,30.24,30.10,30.00,10,7,1,18,6,22,0.00,5,,358
2013-7-30,87,72,57,55,51,48,82,50,25,30.29,30.24,30.17,10,10,5,17,4,,0.00,1,Thunderstorm,147
2013-7-31,89,73,57,63,53,48,82,55,27,30.37,30.29,30.17,10,10,5,14,6,40,0.13,0,Thunderstorm,124